Regional Weather Roundup
Issued by NWS State College, PA

Home | Current Version | Previous Version | Graphics & Text | Print | Product List | Glossary On
Versions: 1 2 3 4 5 6 7 8 9 10 11 12 13 14 15 16 17 18 19 20 21 22 23 24 25 26 27 28 29 30 31 32 33 34 35 36 37 38 39 40 41 42 43 44 45 46 47 48 49 50
000
ASUS41 KCTP 010110
RWRCTP

REGIONAL WEATHER ROUNDUP
NATIONAL WEATHER SERVICE STATE COLLEGE PA
900 PM EDT SAT APR 30 2016

Note: "fair" indicates few or no clouds below 12,000 feet with no
significant weather and/or obstructions to visibility.

* = STATION THAT DOES NOT REPORT PRECIPITATION /E.G. RAIN...SNOW...ETC/
    THUNDER OR FOG.

PAZ002>004-007>009-013>016-020>023-029>032-010200-
WESTERN PENNSYLVANIA

CITY           SKY/WX    TMP DP  RH WIND       PRES   REMARKS
ERIE           LGT RAIN  52  49  89 E6        30.06R
MEADVILLE      CLOUDY    50  48  93 E6        30.04S
FRANKLIN*      CLOUDY    50  46  87 E15G21    30.06F
NEW CASTLE     LGT RAIN  54  51  90 SE10      30.02F
BEAVER COUNTY  NOT AVBL
BUTLER*        CLOUDY    54  48  82 E12       30.05F
PITTSBURGH INT LGT RAIN  57  53  86 SE9       30.00F
PITTSBURGH     CLOUDY    57  52  83 SE12      30.02F
INDIANA*       MOCLDY    52  50  93 SE8G15    30.11F FOG
LATROBE        LGT RAIN  54  54 100 SE9       30.08S
WASHINGTON CO* MOCLDY    55  54  94 S5        30.03F
$$

PAZ004>006-010>012-017>019-024>028-033>037-041-042-045-046-049>053-010200-
CENTRAL PENNSYLVANIA

CITY           SKY/WX    TMP DP  RH WIND       PRES   REMARKS
BRADFORD       LGT RAIN  47  41  80 SE8       30.11S
DUBOIS         LGT RAIN  48  45  89 SE10      30.09F FOG
CLEARFIELD     LGT RAIN  50  45  83 E3        30.15R
JOHNSTOWN      LGT RAIN  47  44  90 SE6       30.11R
ALTOONA        LGT RAIN  49  46  90 SE9       30.15R FOG
STATE COLLEGE  LGT RAIN  52  45  76 S3        30.15S
WILLIAMSPORT   CLOUDY    55  41  59 E8        30.16F
SELINSGROVE    CLOUDY    54  43  66 SE6       30.18S
FT INDIANTOWN  CLOUDY    53  46  77 N2        30.19S
CAPITAL CITY   CLOUDY    56  44  64 S5        30.19R
HARRISBURG     CLOUDY    57  45  64 S7        30.18R
YORK           CLOUDY    55  46  71 VRB3      30.19R
$$

PAZ038>040-043-044-047-048-054-055-060>062-067>071-010200-
EASTERN PENNSYLVANIA

CITY           SKY/WX    TMP DP  RH WIND       PRES   REMARKS
SCRANTON       CLOUDY    54  41  61 CALM      30.18S
MOUNT POCONO   CLOUDY    48  39  71 S5        30.18F
ALLENTOWN      CLOUDY    57  41  55 SE3       30.20F
QUAKERTOWN*    CLOUDY    55  43  62 CALM      30.21S
READING        CLOUDY    56  41  57 SE5       30.19S
LANCASTER      CLOUDY    54  45  71 SE6       30.19S
COATESVILLE    MOCLDY    54  46  76 VRB5      30.22S
POTTSTOWN      CLOUDY    55  43  63 CALM      30.21F
BLUE BELL      CLOUDY    54  39  58 SE6       30.21S
DOYLESTOWN     CLOUDY    53  39  59 SE6       30.20F
WILLOW GROVE   NOT AVBL
NORTH PHILA    CLOUDY    55  36  48 S6        30.24S
PHILADELPHIA   CLOUDY    55  36  48 SE10      30.23S
$$




USA.gov is the U.S. government's official web portal to all federal, state and local government web resources and services.